Regional Weather Roundup
Issued by NWS Charleston, SC

Current Version | Previous Version | Graphics & Text | Print | Product List | Glossary On
Versions: 1 2 3 4 5 6 7 8 9 10 11 12 13 14 15 16 17 18 19 20 21 22 23 24 25 26 27 28 29 30 31 32 33 34 35 36 37 38 39 40 41 42 43 44 45 46 47 48 49 50
224
ASUS42 KCHS 240127
RWRCHS

REGIONAL WEATHER ROUNDUP
NATIONAL WEATHER SERVICE CHARLESTON SC
900 PM EDT SUN JUL 23 2017

NOTE: "FAIR" INDICATES FEW OR NO CLOUDS BELOW 12,000 FEET WITH NO
SIGNIFICANT WEATHER AND/OR OBSTRUCTIONS TO VISIBILITY.

NOT ALL STATIONS ARE QUALITY CONTROLLED. USE DATA WITH CAUTION...
ESPECIALLY DEWPOINT OBSERVATIONS.

SCZ027-030-031-034>040-042>050-240200-
...SOUTHEAST SOUTH CAROLINA...

CITY           SKY/WX    TMP DP  RH WIND       PRES   REMARKS
N CHARLESTON   CLOUDY    80  74  81 SW5       29.93R
WATERFRONT PRK   N/A     83  78  84 SW9       29.90R HX  93
JOHNS ISLAND   FAIR      82  75  78 SW7       29.93R
PINOPOLIS        N/A     81  79  94 CALM      29.86R
MONCKS CORNER  FAIR      77  75  94 CALM      29.93S
SUMMERVILLE    FAIR      77  75  94 CALM      29.94S
BEAUFORT MCAS  MOCLDY    80  75  84 W6        29.94R
BEAUFORT ARPT  FAIR      81  73  78 SW7       29.94R
HILTON HEAD IS PTCLDY    82  75  78 VRB6G13   29.95R
WALTERBORO     MOCLDY    77  75  94 SW3       29.95R
ALLENDALE      NOT AVBL

...SOUTHERN MIDLANDS AND PEE DEE...

CITY           SKY/WX    TMP DP  RH WIND       PRES   REMARKS
GEORGETOWN     FAIR      79  77  94 W3        29.94R
KINGSTREE      MOCLDY    73  70  88 W7        29.96R
ORANGEBURG     TSTM      73  70  90 N13       29.98R VSB 3/4
BARNWELL       MOCLDY    82  75  78 NE7       29.96R
AIKEN          TSTM      72  72 100 E7        29.96S
MANNING        FAIR      77  73  88 E14       29.95S
COLUMBIA       TSTM      75  72  90 SE14      29.92R FOG
SUMTER         RAIN      73  72  94 W6        29.93R
FLORENCE       LGT RAIN  74  73  97 CALM      29.92F
MYRTLE BEACH   PTCLDY    82  75  78 W8        29.92S
N MYRTLE BEACH CLOUDY    82  75  79 W7        29.90F

$$

GAZ063-065-086>088-099>101-113>116-118-119-134>141-150-240200-
...SOUTHEAST GEORGIA...

CITY           SKY/WX    TMP DP  RH WIND       PRES   REMARKS
SAVANNAH ARPT  CLOUDY    79  74  84 S5        29.93R
HUNTER AAF     CLEAR     79  74  85 SW5       29.91R
FORT STEWART   CLOUDY    78  74  87 SW3       29.91R
STATESBORO     CLEAR     80  76  88 SW5       29.95R
SYLVANIA       CLOUDY    80  75  86 SW3       29.96R
CLAXTON        FAIR      79  78  95 CALM      29.94R

...CSRA...CENTRAL AND FAR SOUTHEAST GEORGIA...

CITY           SKY/WX    TMP DP  RH WIND       PRES   REMARKS
THOMSON        RAIN      75  70  82 S16G38    29.99R
AUGUSTA-BUSH   CLOUDY    81  72  74 NE9       29.94R
AUGUSTA-DANIEL TSTM      76  68  76 NW10G22   29.96R
SWAINSBORO     FAIR      77  73  88 SE3       29.95R
VIDALIA        MOCLDY    79  77  94 S3        29.94R
EASTMAN        FAIR      81  68  64 SW6       29.94R
HAZLEHURST     FAIR      80  78  95 S7        29.92S
ALMA           MOCLDY    80  74  81 SW7       29.92S
WAYCROSS       CLOUDY    81  80  96 SW5       29.95R HX  92
JESUP          NOT AVBL
BAXLEY         FAIR      79  79 100 S6        29.94R
BRUNSWICK      MOCLDY    79  77  94 S6        29.96R
SAINT SIMONS   PTCLDY    81  77  88 SW7       29.94R

$$

SCZ027-028-034-036>038-045-046-048>050-GAZ119-141-240200-
...LAKE AND SUPPLEMENTAL COASTAL OBSERVATIONS...

STATION/POSITION TIME  TEMP    WIND        PRES    WAVE   SWELL
                       AIR SEA DIR/SP/G            HT/PER HT/PER/DIR
                 (UTC) (F)     (DEG/KT/KT) (MB)    (FT/S) (FT/S/D)
WINYAH BAY       0045   81     270/  3     1013.0R
LAKE MURRAY      0020   77     130/  9/ 13 1011.5
ACE BASIN NERRS  0030   81        CALM     1013.0R
FORT PULASKI     0100   82 86  230/  6/ 10 1013.7
SAPELO ISLAND    0100   80     210/  8     1014.0

$$

ANZ835-935-AMZ111-154-330-350-352-354-370-450-454-472-240200-
...C-MAN AND BUOY OBSERVATIONS...

STATION/POSITION TIME  TEMP    WIND        PRES    WAVE   SWELL
                       AIR SEA DIR/SP/G            HT/PER HT/PER/DIR
                 (UTC) (F)     (DEG/KT/KT) (MB)    (FT/S) (FT/S/D)
BUOY 41004       0110   82 84  220/ 17/ 21 1013.1
BUOY 41008       0050   80 81  210/ 16/ 17 1013.5R   3/ 5   2/110/ 9
FOLLY BEACH CMAN 0100   82     220/ 14/ 18 1013.9R
CAPERS NEARSHORE 0108   78 84  240/ 17/ 25 1012.7R
FRIPP NEARSHORE  0108   82 84  220/ 17/ 23 1013.2R


STATION/POSITION TIME  TEMP    WIND        PRES    WAVE   SWELL
                       AIR SEA DIR/SP/G            HT/PER HT/PER/DIR
                 (UTC) (F)     (DEG/KT/KT) (MB)    (FT/S) (FT/S/D)
5E ST. MARYS GA  0100      81                N/A     3/ 9
FRYING PAN BUOY  0110   83 83  220/ 21/ 27 1012.9
BUOY 41025       0050   84 84  220/ 23/ 27 1011.7R   7/ 6   2/150/10
CAPE LOOKOUT NC  0100   82     240/ 17/ 23 1012.7R
BUOY 41002       0050   83 83  220/ 17/ 21 1016.4R   5/ 6   2/110/ 9
BUOY 41010       0100   84 85  150/ 14/ 16 1015.4
ST AUGUSTINE FL  0100   78 75  210/  6/  8 1015.4R


$$




USA.gov is the U.S. government's official web portal to all federal, state and local government web resources and services.